Date,TemperatureHighF,TemperatureAvgF,TemperatureLowF,DewpointHighF,DewpointAvgF,DewpointLowF,HumidityHigh,HumidityAvg,HumidityLow,PressureMaxIn,PressureMinIn,WindSpeedMaxMPH,WindSpeedAvgMPH,GustSpeedMaxMPH,PrecipitationSumIn
2013-5-1,82,66,51,65,57,51,100,76,44,0.00,40.00,4,1,13,0.00
2013-5-2,78,66,52,61,55,50,100,70,49,0.00,40.00,3,1,10,0.05
2013-5-3,81,66,53,61,49,40,100,62,24,0.00,40.00,3,1,11,0.05
2013-5-4,74,62,52,48,46,40,83,57,37,0.00,40.00,4,2,45,0.00
2013-5-5,76,62,46,53,43,35,100,58,26,0.00,40.00,4,2,14,0.00
2013-5-6,71,61,55,66,52,37,100,74,43,0.00,40.00,4,1,11,0.02
2013-5-7,70,60,53,70,59,53,100,96,71,0.00,40.00,4,1,16,0.17
2013-5-8,72,62,53,61,57,53,100,87,56,0.00,40.00,3,1,9,0.01
2013-5-9,79,64,51,71,59,51,100,87,49,0.00,40.00,3,1,9,0.03
2013-5-10,76,63,59,72,60,-100,100,98,84,0.00,40.00,3,1,17,0.59
2013-5-11,61,56,49,61,56,46,100,98,90,0.00,40.00,4,2,18,0.14
2013-5-12,54,47,37,46,36,-100,100,72,48,0.00,40.00,7,3,18,0.00
2013-5-13,56,45,36,40,36,31,100,74,42,0.00,40.00,6,2,16,0.01
2013-5-14,72,53,35,54,44,35,100,77,41,0.00,40.00,2,1,10,0.01
2013-5-15,88,73,59,68,62,54,100,72,48,0.00,40.00,4,2,15,0.00
2013-5-16,80,62,60,73,40,-100,100,84,54,0.00,40.00,2,1,10,0.45
2013-5-17,83,67,60,74,59,-100,100,91,57,0.00,40.00,3,1,14,0.39
2013-5-18,81,67,58,71,64,58,100,93,65,0.00,40.00,3,0,7,0.00
2013-5-19,83,69,60,76,67,60,100,94,73,0.00,40.00,2,0,32,0.00
2013-5-20,85,71,63,79,70,63,100,97,82,0.00,40.00,2,0,6,0.00
2013-5-21,89,74,67,78,70,64,100,91,60,0.00,40.00,2,1,11,0.07
2013-5-22,85,72,62,74,68,62,100,87,61,0.00,40.00,3,1,11,0.07
2013-5-23,77,66,49,72,63,48,100,91,59,0.00,40.00,7,2,16,0.02
2013-5-24,58,49,40,48,42,37,100,80,52,0.00,40.00,6,4,17,0.01
2013-5-25,67,50,36,46,40,36,100,74,38,0.00,40.00,4,2,14,0.00
2013-5-26,72,54,39,47,41,37,100,69,33,0.00,40.00,3,1,10,0.00
2013-5-27,70,55,46,59,52,45,100,91,54,0.00,40.00,2,0,9,0.06
2013-5-28,86,70,57,73,65,57,100,85,60,0.00,40.00,2,1,9,0.01
2013-5-29,90,76,65,71,67,65,100,78,49,0.00,40.00,3,1,10,0.00
2013-5-30,92,76,63,76,68,63,100,80,48,0.00,40.00,2,1,9,0.00
2013-5-31,90,75,63,76,68,63,100,82,54,0.00,40.00,4,1,12,0.10